Location: Audinghen
(50.8518°N, 1.6129°E)
Time: 16:37:17
(UTC+00:00)

Spot 1 - Pass Details

Date: 07 August 2020
Orbit: 576 x 776 km, 98.7° (Epoch: 18 September)

Event Time Altitude Azimuth Distance (km) Brightness Sun altitude
Exits shadow 01:06:46 54° 151° (SSE) 723 4.1 -21.2°
Maximum altitude 01:07:39 82° 74° (ENE) 604 3.9 -21.2°
Drops below altitude 10° 01:11:46 10° 346° (NNW) 1,909 7.4 -21.0°
Sets 01:13:54 0° 346° (NNW) 2,807 8.4 -20.9°
